Time,TemperatureF,DewpointF,PressureIn,WindDirection,WindDirectionDegrees,WindSpeedMPH,WindSpeedGustMPH,Humidity,HourlyPrecipIn,Conditions,Clouds,dailyrainin,SoftwareType,DateUTC
2013-05-07 00:00:00,51.4,51.4,30.10,NE,51,6.0,8.0,100,0.00,OVC,,0.00,WeatherDisplay:10.37,2013-05-07 04:00:00,
2013-05-07 00:15:00,51.4,51.4,30.10,ENE,78,7.0,12.0,100,0.00,OVC,,0.00,WeatherDisplay:10.37,2013-05-07 04:15:00,
2013-05-07 00:30:00,51.4,51.4,30.10,NE,37,7.0,8.0,100,0.00,OVC,,0.00,WeatherDisplay:10.37,2013-05-07 04:30:00,
2013-05-07 00:45:00,51.6,51.6,30.10,NE,49,7.0,9.0,100,0.00,OVC,,0.00,WeatherDisplay:10.37,2013-05-07 04:45:00,
2013-05-07 01:00:00,51.8,51.8,30.10,ENE,57,6.0,9.0,100,0.00,OVC,,0.00,WeatherDisplay:10.37,2013-05-07 05:00:00,
2013-05-07 01:15:00,51.8,51.8,30.10,NE,39,6.0,10.0,100,0.00,OVC,,0.00,WeatherDisplay:10.37,2013-05-07 05:15:00,
2013-05-07 01:30:00,51.8,51.8,30.10,ENE,77,6.0,12.0,100,0.00,OVC,,0.00,WeatherDisplay:10.37,2013-05-07 05:30:00,
2013-05-07 01:45:00,51.6,51.6,30.10,ENE,59,7.0,9.0,100,0.00,OVC,,0.00,WeatherDisplay:10.37,2013-05-07 05:45:00,
2013-05-07 02:00:00,51.4,51.4,30.07,NE,47,6.0,8.0,100,0.00,OVC,,0.00,WeatherDisplay:10.37,2013-05-07 06:00:00,
2013-05-07 02:15:00,51.4,51.4,30.07,ENE,60,7.0,8.0,100,0.00,OVC,,0.00,WeatherDisplay:10.37,2013-05-07 06:15:00,
2013-05-07 02:30:00,51.4,51.4,30.07,NE,51,7.0,12.0,100,0.00,OVC,,0.00,WeatherDisplay:10.37,2013-05-07 06:30:00,
2013-05-07 02:45:00,51.8,51.8,30.07,NE,55,6.0,7.0,100,0.00,OVC,,0.00,WeatherDisplay:10.37,2013-05-07 06:45:00,
2013-05-07 03:00:00,51.8,51.8,30.07,NE,46,6.0,7.0,100,0.00,OVC,,0.00,WeatherDisplay:10.37,2013-05-07 07:00:00,
2013-05-07 03:15:00,52.0,52.0,30.07,NE,43,6.0,8.0,100,0.00,OVC,,0.00,WeatherDisplay:10.37,2013-05-07 07:15:00,
2013-05-07 03:30:00,52.2,52.2,30.07,NE,43,6.0,8.0,100,0.00,OVC,,0.00,WeatherDisplay:10.37,2013-05-07 07:30:00,
2013-05-07 03:45:00,52.2,52.2,30.04,NE,39,6.0,8.0,100,0.00,OVC,,0.00,WeatherDisplay:10.37,2013-05-07 07:45:00,
2013-05-07 04:00:00,52.3,52.3,30.04,NE,44,6.0,8.0,100,0.00,OVC,,0.00,WeatherDisplay:10.37,2013-05-07 08:00:00,
2013-05-07 04:15:00,52.5,52.5,30.04,NE,47,5.0,6.0,100,0.00,OVC,,0.00,WeatherDisplay:10.37,2013-05-07 08:15:00,
2013-05-07 04:30:00,52.9,52.9,30.04,NE,44,5.0,7.0,100,0.00,OVC,,0.00,WeatherDisplay:10.37,2013-05-07 08:30:00,
2013-05-07 04:45:00,52.9,52.9,30.04,NE,35,5.0,6.0,100,0.00,OVC,,0.00,WeatherDisplay:10.37,2013-05-07 08:45:00,
2013-05-07 05:00:00,52.7,52.7,30.04,NE,49,7.0,10.0,100,0.00,OVC,,0.00,WeatherDisplay:10.37,2013-05-07 09:00:00,
2013-05-07 05:15:00,52.7,52.7,30.04,NE,46,8.0,10.0,100,0.00,OVC,,0.00,WeatherDisplay:10.37,2013-05-07 09:15:00,
2013-05-07 05:30:00,52.5,52.5,30.04,NE,47,7.0,9.0,100,0.00,OVC,,0.00,WeatherDisplay:10.37,2013-05-07 09:30:00,
2013-05-07 05:45:00,52.5,52.5,30.04,ENE,58,8.0,14.0,100,0.00,OVC,,0.00,WeatherDisplay:10.37,2013-05-07 09:45:00,
2013-05-07 06:00:00,52.5,52.5,30.04,NE,56,9.0,16.0,100,0.00,OVC,,0.00,WeatherDisplay:10.37,2013-05-07 10:00:00,
2013-05-07 06:15:00,52.3,52.3,30.04,NE,43,8.0,10.0,100,0.00,OVC,,0.00,WeatherDisplay:10.37,2013-05-07 10:15:00,
2013-05-07 06:30:00,52.5,52.5,30.04,NE,47,9.0,10.0,100,0.00,OVC,,0.00,WeatherDisplay:10.37,2013-05-07 10:30:00,
2013-05-07 06:45:00,52.3,52.3,30.07,NE,35,9.0,10.0,100,0.00,OVC,,0.00,WeatherDisplay:10.37,2013-05-07 10:45:00,
2013-05-07 07:00:00,52.5,52.5,30.07,NE,44,9.0,13.0,100,0.00,OVC,,0.00,WeatherDisplay:10.37,2013-05-07 11:00:00,
2013-05-07 07:15:00,53.1,53.1,30.07,NE,41,7.0,12.0,100,0.00,OVC,,0.00,WeatherDisplay:10.37,2013-05-07 11:15:00,
2013-05-07 07:30:00,53.1,53.1,30.07,NE,46,8.0,12.0,100,0.00,OVC,,0.00,WeatherDisplay:10.37,2013-05-07 11:30:00,
2013-05-07 07:45:00,53.2,53.2,30.07,NNE,31,9.0,10.0,100,0.00,OVC,,0.00,WeatherDisplay:10.37,2013-05-07 11:45:00,
2013-05-07 08:00:00,54.0,54.0,30.07,NE,39,8.0,8.0,100,0.00,OVC,,0.00,WeatherDisplay:10.37,2013-05-07 12:00:00,
2013-05-07 08:15:00,55.0,55.0,30.07,NE,54,9.0,13.0,100,0.00,OVC,,0.00,WeatherDisplay:10.37,2013-05-07 12:15:00,
2013-05-07 08:30:00,54.9,54.9,30.07,NE,47,9.0,13.0,100,0.00,OVC,,0.00,WeatherDisplay:10.37,2013-05-07 12:30:00,
2013-05-07 08:45:00,55.4,55.4,30.07,NE,47,9.0,12.0,100,0.00,OVC,,0.00,WeatherDisplay:10.37,2013-05-07 12:45:00,
2013-05-07 09:00:00,55.8,55.8,30.07,NE,50,9.0,14.0,100,0.00,OVC,,0.00,WeatherDisplay:10.37,2013-05-07 13:00:00,
2013-05-07 09:15:00,57.7,56.0,30.07,ENE,57,9.0,14.0,94,0.00,OVC,,0.00,WeatherDisplay:10.37,2013-05-07 13:15:00,
2013-05-07 09:30:00,57.7,53.9,30.07,NE,52,9.0,15.0,87,0.00,OVC,,0.00,WeatherDisplay:10.37,2013-05-07 13:30:00,
2013-05-07 09:45:00,57.9,52.8,30.07,NE,45,10.0,14.0,83,0.00,OVC,,0.00,WeatherDisplay:10.37,2013-05-07 13:45:00,
2013-05-07 10:00:00,58.8,53.7,30.07,NE,47,10.0,13.0,83,0.00,OVC,,0.00,WeatherDisplay:10.37,2013-05-07 14:00:00,
2013-05-07 10:15:00,59.4,52.8,30.07,NE,55,10.0,14.0,79,0.00,OVC,,0.00,WeatherDisplay:10.37,2013-05-07 14:15:00,
2013-05-07 10:30:00,59.2,52.3,30.07,NE,53,12.0,14.0,78,0.00,OVC,,0.00,WeatherDisplay:10.37,2013-05-07 14:30:00,
2013-05-07 10:45:00,59.2,52.3,30.07,NE,46,12.0,15.0,78,0.00,OVC,,0.00,WeatherDisplay:10.37,2013-05-07 14:45:00,
2013-05-07 11:00:00,57.4,51.9,30.07,NE,52,12.0,13.0,82,0.00,OVC,,0.00,WeatherDisplay:10.37,2013-05-07 15:00:00,
2013-05-07 11:15:00,56.1,52.9,30.07,NE,43,12.0,14.0,89,0.00,OVC,,0.00,WeatherDisplay:10.37,2013-05-07 15:15:00,
2013-05-07 11:30:00,55.6,53.6,30.07,NE,45,10.0,13.0,93,0.13,RA,,0.13,WeatherDisplay:10.37,2013-05-07 15:30:00,
2013-05-07 11:45:00,55.8,54.9,30.07,NE,53,10.0,12.0,97,0.00,OVC,,0.13,WeatherDisplay:10.37,2013-05-07 15:45:00,
2013-05-07 12:00:00,57.0,56.2,30.07,NE,44,9.0,14.0,97,0.00,OVC,,0.13,WeatherDisplay:10.37,2013-05-07 16:00:00,
2013-05-07 12:15:00,57.9,55.9,30.07,ENE,58,10.0,14.0,93,0.00,OVC,,0.13,WeatherDisplay:10.37,2013-05-07 16:15:00,
2013-05-07 12:30:00,56.5,54.2,30.07,NNE,33,12.0,19.0,92,0.00,OVC,,0.13,WeatherDisplay:10.37,2013-05-07 16:30:00,
2013-05-07 12:45:00,56.5,53.9,30.07,NE,49,10.0,14.0,91,0.00,OVC,,0.13,WeatherDisplay:10.37,2013-05-07 16:45:00,
2013-05-07 13:00:00,56.5,53.9,30.04,NE,45,12.0,15.0,91,0.00,OVC,,0.13,WeatherDisplay:10.37,2013-05-07 17:00:00,
2013-05-07 13:15:00,56.7,54.4,30.04,NE,54,14.0,17.0,92,0.00,OVC,,0.13,WeatherDisplay:10.37,2013-05-07 17:15:00,
2013-05-07 13:30:00,58.3,55.4,30.07,NE,37,12.0,17.0,90,0.00,OVC,,0.13,WeatherDisplay:10.37,2013-05-07 17:30:00,
2013-05-07 13:45:00,58.5,54.3,30.04,NE,35,12.0,17.0,86,0.00,OVC,,0.13,WeatherDisplay:10.37,2013-05-07 17:45:00,
2013-05-07 14:00:00,59.0,53.8,30.04,NE,48,13.0,17.0,83,0.00,OVC,,0.13,WeatherDisplay:10.37,2013-05-07 18:00:00,
2013-05-07 14:15:00,58.8,53.3,30.04,NE,43,9.0,16.0,82,0.00,OVC,,0.13,WeatherDisplay:10.37,2013-05-07 18:15:00,
2013-05-07 14:30:00,61.3,53.3,30.04,NE,50,10.0,14.0,75,0.00,OVC,,0.13,WeatherDisplay:10.37,2013-05-07 18:30:00,
2013-05-07 14:45:00,60.4,51.7,30.04,NE,48,10.0,13.0,73,0.00,OVC,,0.13,WeatherDisplay:10.37,2013-05-07 18:45:00,
2013-05-07 15:00:00,59.4,51.8,30.04,ENE,59,12.0,14.0,76,0.00,OVC,,0.13,WeatherDisplay:10.37,2013-05-07 19:00:00,
2013-05-07 15:15:00,58.3,53.8,30.04,NE,45,10.0,12.0,85,0.00,OVC,,0.13,WeatherDisplay:10.37,2013-05-07 19:15:00,
2013-05-07 15:30:00,57.7,53.9,30.04,ENE,66,10.0,13.0,87,0.00,OVC,,0.13,WeatherDisplay:10.37,2013-05-07 19:30:00,
2013-05-07 15:45:00,57.9,54.4,30.04,NE,46,9.0,12.0,88,0.00,OVC,,0.13,WeatherDisplay:10.37,2013-05-07 19:45:00,
2013-05-07 16:00:00,58.1,54.9,30.01,NE,38,8.0,10.0,89,0.00,OVC,,0.13,WeatherDisplay:10.37,2013-05-07 20:00:00,
2013-05-07 16:15:00,58.1,54.6,30.01,NE,42,7.0,10.0,88,0.00,OVC,,0.13,WeatherDisplay:10.37,2013-05-07 20:15:00,
2013-05-07 16:30:00,57.4,53.9,30.01,NE,46,9.0,13.0,88,0.00,OVC,,0.13,WeatherDisplay:10.37,2013-05-07 20:30:00,
2013-05-07 16:45:00,57.6,55.0,30.01,NE,41,8.0,9.0,91,0.00,OVC,,0.13,WeatherDisplay:10.37,2013-05-07 20:45:00,
2013-05-07 17:00:00,57.6,55.0,30.01,NE,56,9.0,12.0,91,0.00,OVC,,0.13,WeatherDisplay:10.37,2013-05-07 21:00:00,
2013-05-07 17:15:00,57.9,55.0,30.01,NE,52,9.0,12.0,90,0.00,OVC,,0.13,WeatherDisplay:10.37,2013-05-07 21:15:00,
2013-05-07 17:30:00,58.5,54.6,30.01,NE,41,9.0,12.0,87,0.00,BKN,,0.13,WeatherDisplay:10.37,2013-05-07 21:30:00,
2013-05-07 17:45:00,58.5,54.6,29.99,NE,48,9.0,12.0,87,0.00,OVC,,0.13,WeatherDisplay:10.37,2013-05-07 21:45:00,
2013-05-07 18:00:00,58.1,54.6,30.01,NE,45,9.0,12.0,88,0.00,BKN,,0.13,WeatherDisplay:10.37,2013-05-07 22:00:00,
2013-05-07 18:15:00,58.5,54.9,30.01,NE,44,8.0,12.0,88,0.00,BKN,,0.13,WeatherDisplay:10.37,2013-05-07 22:15:00,
2013-05-07 18:30:00,58.1,54.2,29.99,NE,41,7.0,10.0,87,0.00,BKN,,0.13,WeatherDisplay:10.37,2013-05-07 22:30:00,
2013-05-07 18:45:00,58.1,54.2,29.99,NE,44,10.0,14.0,87,0.00,OVC,,0.13,WeatherDisplay:10.37,2013-05-07 22:45:00,
2013-05-07 19:00:00,58.1,54.6,29.99,ENE,61,10.0,12.0,88,0.00,BKN,,0.13,WeatherDisplay:10.37,2013-05-07 23:00:00,
2013-05-07 19:15:00,57.6,55.0,29.99,ENE,60,7.0,10.0,91,0.01,RA,,0.14,WeatherDisplay:10.37,2013-05-07 23:15:00,
2013-05-07 19:30:00,57.2,55.2,30.01,NE,46,7.0,12.0,93,0.00,SCT,,0.14,WeatherDisplay:10.37,2013-05-07 23:30:00,
2013-05-07 19:45:00,57.0,55.9,30.01,NE,54,8.0,12.0,96,0.00,SCT,,0.14,WeatherDisplay:10.37,2013-05-07 23:45:00,
2013-05-07 20:00:00,56.8,56.0,30.01,NE,56,7.0,8.0,97,0.00,BKN,,0.14,WeatherDisplay:10.37,2013-05-08 00:00:00,
2013-05-07 20:15:00,58.1,58.1,30.01,NE,42,8.0,12.0,100,0.00,OVC,,0.14,WeatherDisplay:10.37,2013-05-08 00:15:00,
2013-05-07 20:30:00,58.1,58.1,30.01,ENE,58,8.0,10.0,100,0.03,RA,,0.17,WeatherDisplay:10.37,2013-05-08 00:30:00,
2013-05-07 20:45:00,57.6,57.6,30.01,NE,44,8.0,10.0,100,0.01,OVC,,0.18,WeatherDisplay:10.37,2013-05-08 00:45:00,
2013-05-07 21:00:00,57.4,57.4,30.01,NE,37,7.0,10.0,100,0.01,OVC,,0.20,WeatherDisplay:10.37,2013-05-08 01:00:00,
2013-05-07 21:15:00,57.4,57.4,30.01,ENE,76,9.0,10.0,100,0.00,OVC,,0.20,WeatherDisplay:10.37,2013-05-08 01:15:00,
2013-05-07 21:30:00,57.0,57.0,30.04,East,101,8.0,12.0,100,0.00,OVC,,0.20,WeatherDisplay:10.37,2013-05-08 01:30:00,
2013-05-07 21:45:00,56.8,56.8,30.04,East,92,6.0,12.0,100,0.00,OVC,,0.20,WeatherDisplay:10.37,2013-05-08 01:45:00,
2013-05-07 22:00:00,56.3,56.3,30.04,ESE,110,3.0,6.0,100,0.00,OVC,,0.20,WeatherDisplay:10.37,2013-05-08 02:00:00,
2013-05-07 22:15:00,55.8,55.8,30.04,North,357,1.0,2.0,100,0.01,RA,,0.21,WeatherDisplay:10.37,2013-05-08 02:15:00,
2013-05-07 22:30:00,55.6,55.6,30.01,NNE,25,0.0,1.0,100,0.00,OVC,,0.21,WeatherDisplay:10.37,2013-05-08 02:30:00,
2013-05-07 22:45:00,55.2,55.2,30.01,ENE,72,1.0,2.0,100,0.00,OVC,,0.21,WeatherDisplay:10.37,2013-05-08 02:45:00,
2013-05-07 23:00:00,55.2,55.2,30.01,NE,49,1.0,1.0,100,0.00,BKN,,0.21,WeatherDisplay:10.37,2013-05-08 03:00:00,
2013-05-07 23:15:00,54.9,54.9,30.01,ESE,119,1.0,2.0,100,0.00,BKN,,0.21,WeatherDisplay:10.37,2013-05-08 03:15:00,
2013-05-07 23:30:00,54.9,54.9,30.01,NNE,30,0.0,2.0,100,0.00,BKN,,0.21,WeatherDisplay:10.37,2013-05-08 03:30:00,
2013-05-07 23:45:00,54.5,54.5,30.01,ENE,65,1.0,3.0,100,0.00,OVC,,0.21,WeatherDisplay:10.37,2013-05-08 03:45:00,